Regional Weather Roundup
Issued by NWS

Home | Current Version | Previous Version | Graphics & Text | Print | Product List | Glossary On
Versions: 1 2 3 4 5 6 7 8 9 10 11 12 13 14 15 16 17 18 19 20 21 22 23 24 25 26 27
000
ASUS45 KPSR 021810
RWRAZ

ARIZONA HOURLY REGIONAL WEATHER ROUNDUP
NATIONAL WEATHER SERVICE PHOENIX AZ
1100 AM MST FRI DEC 02 2016

NOTE: FAIR INDICATES FEW OR NO CLOUDS BELOW 12,000 FEET WITH NO
SIGNIFICANT WEATHER AND/OR OBSTRUCTIONS TO VISIBILITY.

AZZ001>003-036-021900-
NORTHWEST ARIZONA

CITY           SKY/WX    TMP DP  RH WIND       PRES   REMARKS
BULLHEAD CITY  SUNNY     55  19  24 N36G46    30.02S
KINGMAN        PTSUNNY   46  15  28 N20G25    30.01R
6HR MIN TEMP:  35; 6HR MAX TEMP:  47;

$$

AZZ004>008-015-016-018-021900-
NORTH CENTRAL ARIZONA

CITY           SKY/WX    TMP DP  RH WIND       PRES   REMARKS
GRAND CANYON   MOSUNNY   32  16  51 E15G24    30.00R WCI  22
6HR MIN TEMP:  27; 6HR MAX TEMP:  32;

PRESCOTT       MOSUNNY   41  22  46 CALM      29.95S
6HR MIN TEMP:  28; 6HR MAX TEMP:  41;

FLAGSTAFF      CLOUDY    30  17  58 E10       29.95R WCI  21
6HR MIN TEMP:  24; 6HR MAX TEMP:  30;

PAYSON         CLOUDY    43  16  33 VRB6      29.96S
PAGE           MOSUNNY   41  14  33 NW3       30.05S
6HR MIN TEMP:  32; 6HR MAX TEMP:  41;

$$

AZZ009>014-017-021900-
NORTHEAST ARIZONA

CITY           SKY/WX    TMP DP  RH WIND       PRES   REMARKS
WINSLOW        CLOUDY    38  19  46 NW7       29.99S WCI  33
6HR MIN TEMP:  28; 6HR MAX TEMP:  39;

SAINT JOHNS    SUNNY     41  19  41 VRB3      29.94S
6HR MIN TEMP:  19; 6HR MAX TEMP:  41;

WINDOW ROCK    PTSUNNY   39  15  37 NE9       29.97R WCI  33
6HR MIN TEMP:  18; 6HR MAX TEMP:  39;

SHOW LOW       SUNNY     36  16  44 NW6       29.95S WCI  31
$$

AZZ023-021900-
GREATER PHOENIX AREA

CITY           SKY/WX    TMP DP  RH WIND       PRES   REMARKS
PHOENIX        PTSUNNY   52  29  41 SE3       29.93S
6HR MIN TEMP:  44; 6HR MAX TEMP:  52;

BUCKEYE        PTSUNNY   55  36  47 S6        29.96S
GLENDALE       PTSUNNY   54  32  43 CALM      29.96R
LUKE AFB       MOSUNNY   56  31  39 CALM      29.93S
6HR MIN TEMP:  42; 6HR MAX TEMP:  56;

DEER VALLEY    CLOUDY    54  25  32 CALM      29.93R
6HR MIN TEMP:  44; 6HR MAX TEMP:  55;

SCOTTSDALE     MOSUNNY   55  26  32 VRB3      29.94S
6HR MIN TEMP:  44; 6HR MAX TEMP:  56;

CHANDLER       PTSUNNY   50  30  46 CALM      29.95R
$$

AZZ027-028-021900-
SOUTHWEST MARICOPA COUNTY AND PINAL COUNTY

CITY           SKY/WX    TMP DP  RH WIND       PRES   REMARKS
CASA GRANDE    NOT AVBL
GILA BEND      PTSUNNY   55  27  33 MISG      29.93S
$$

AZZ503-504-507>509-021900-
SOUTHEAST ARIZONA

CITY           SKY/WX    TMP DP  RH WIND       PRES   REMARKS
TUCSON         MOSUNNY   55  13  18 CALM      29.94F
6HR MIN TEMP:  37; 6HR MAX TEMP:  55;

DAVIS-MONTHAN  MOSUNNY   55  14  19 S2        29.93F
6HR MIN TEMP:  33; 6HR MAX TEMP:  55;

NOGALES        MOSUNNY   54  22  28 SE10      29.93F
6HR MIN TEMP:  29; 6HR MAX TEMP:  54;

SIERRA VISTA   PTSUNNY   52  15  23 VRB5      29.94F
6HR MIN TEMP:  34; 6HR MAX TEMP:  53;

DOUGLAS        SUNNY     55  14  19 S16G22    29.95F
6HR MIN TEMP:  30; 6HR MAX TEMP:  55;

SAFFORD        MOSUNNY   54  20  26 E8        29.92F
6HR MIN TEMP:  31; 6HR MAX TEMP:  54;

$$

AZZ020-021-025-026-031-021900-
SOUTHWEST ARIZONA

CITY           SKY/WX    TMP DP  RH WIND       PRES   REMARKS
YUMA           CLOUDY    62  22  21 N18G26    29.95S
6HR MIN TEMP:  49; 6HR MAX TEMP:  62;

$$

CAZ031-033-041-043-047-048-061-021900-
SOUTHERN CALIFORNIA

CITY           SKY/WX    TMP DP  RH WIND       PRES   REMARKS
DOWNTOWN L.A.  SUNNY     62  15  16 VRB6      30.02R
6HR MIN TEMP:  53; 6HR MAX TEMP:  62;

L.A. AIRPORT   MOSUNNY   63  13  14 N12       30.03R
6HR MIN TEMP:  55; 6HR MAX TEMP:  64;

SAN DIEGO      MOSUNNY   62  40  44 NE6       30.00S
6HR MIN TEMP:  51; 6HR MAX TEMP:  62;

BURBANK        SUNNY     59  10  14 VRB5      30.04R
6HR MIN TEMP:  49; 6HR MAX TEMP:  59;

ONTARIO        MOSUNNY   57  13  17 NE26G38   30.00R
6HR MIN TEMP:  52; 6HR MAX TEMP:  57;

RIVERSIDE      SUNNY     57  16  20 NE21G35   30.04F
6HR MIN TEMP:  53; 6HR MAX TEMP:  57;

PALM SPRINGS   SUNNY     61  13  15 N25G32    30.07R
6HR MIN TEMP:  56; 6HR MAX TEMP:  62;

EL CENTRO NAS  PTSUNNY   64  20  18 N29       30.00S BLWGDUST
6HR MIN TEMP:  50; 6HR MAX TEMP:  64; 6HR PCP: TRACE;

IMPERIAL         N/A     64  25  22 N25G31    29.98R
6HR MIN TEMP:  49; 6HR MAX TEMP:  64;

BLYTHE         MOSUNNY   60  21  22 N25G35    29.98R
6HR MIN TEMP:  49; 6HR MAX TEMP:  60;

NEEDLES        MOSUNNY   59  19  21 N30G36    30.03R
6HR MIN TEMP:  52; 6HR MAX TEMP:  59;

$$

NVZ020-UTZ003-021900-
SOUTHERN NEVADA-UTAH

CITY           SKY/WX    TMP DP  RH WIND       PRES   REMARKS
LAS VEGAS      PTSUNNY   50  12  21 N22G29    30.13R
6HR MIN TEMP:  45; 6HR MAX TEMP:  50;

SALT LAKE CITY MOSUNNY   33  23  66 N6        30.24S WCI  28
6HR MIN TEMP:  25; 6HR MAX TEMP:  33;

$$

NMZ009-TXZ055-021900-
NEW MEXICO-WEST TEXAS

CITY           SKY/WX    TMP DP  RH WIND       PRES   REMARKS
ALBUQUERQUE    MOSUNNY   47  14  26 E18G26    30.00F
6HR MIN TEMP:  31; 6HR MAX TEMP:  47; 6HR PCP: TRACE;

EL PASO        PTSUNNY   55  21  26 N5        29.95S
6HR MIN TEMP:  36; 6HR MAX TEMP:  55;

$$


........................KEY........................
SKY/WX - SKY CONDITION/WEATHER
TMP    - TEMPERATURE IN FAHRENHEIT
DP     - DEW POINT IN FAHRENHEIT
RH     - RELATIVE HUMIDITY IN PERCENT
WIND   - DIRECTION AND SPEED IN MILES PER HOUR (MPH)
VRB    - VARIABLE WIND DIRECTION
PRES   - MEAN SEA LEVEL PRESSURE IN INCHES OF MERCURY
         F - FALLING PRESSURE   R - RISING PRESSURE
         S - STEADY PRESSURE
VSB    - VISIBILITY IN MILES
HX     - HEAT INDEX IN FAHRENHEIT
WCI    - WIND CHILL INDEX IN FAHRENHEIT
TC     - TEMPERATURE IN CELSIUS WHICH IS ALSO KNOWN AS
         TEMPERATURE IN CENTIGRADE
AFB    - AIR FORCE BASE
         LUKE AFB IS LUKE AIR FORCE BASE
         DAVIS-MONTHAN IS DAVIS-MONTHAN AIR FORCE BASE
NAS    - NAVAL AIR STATION
         EL CENTRO NAS IS EL CENTRO NAVAL AIR STATION
N/A    - NOT AVAILABLE





USA.gov is the U.S. government's official web portal to all federal, state and local government web resources and services.